User: anonymous   Login
Location: Unspecified
(0.0000°N, 0.0000°E)
Time: 01:56:47
(UTC+01:00)
Language:

Cosmos 2279 Rocket - Orbit

View from above orbital plane
View from above orbital plane
View from above satellite
View from above satellite

Ground track
Ground track

The orbit data is extracted from the following two-line orbital elements,

1 23093U 94024B   14324.80048070  .00000097  00000-0  81340-4 0  9375
2 23093 082.9477 093.1000 0011385 116.5682 243.6643 13.77635020502094
Epoch (UTC): 20 November 2014 19:12:41
Eccentricity: 0.0011385
inclination: 82.9477°
perigee height: 964 km
apogee height: 980 km
right ascension of ascending node: 93.1000°
argument of perigee: 116.5682°
revolutions per day: 13.77635020
mean anomaly at epoch: 243.6643°
orbit number at epoch: 50209

The dashed part of the orbit path shows where the satellite is in the earth's shadow,  

DLR